TimeEDT,TemperatureF,Dew PointF,Humidity,Sea Level PressureIn,VisibilityMPH,Wind Direction,Wind SpeedMPH,Gust SpeedMPH,PrecipitationIn,Events,Conditions,WindDirDegrees,DateUTC
12:54 AM,75.9,70.0,82,30.10,10.0,SW,6.9,-,N/A,,Clear,230,2013-07-05 04:54:00
1:54 AM,75.0,70.0,84,30.09,10.0,WSW,5.8,-,N/A,,Clear,250,2013-07-05 05:54:00
2:54 AM,73.9,70.0,87,30.10,10.0,WSW,6.9,-,N/A,,Clear,250,2013-07-05 06:54:00
3:54 AM,71.1,69.1,93,30.10,8.0,Calm,Calm,-,N/A,,Clear,0,2013-07-05 07:54:00
4:54 AM,71.1,69.1,93,30.11,8.0,WSW,5.8,-,N/A,,Clear,250,2013-07-05 08:54:00
5:54 AM,72.0,70.0,93,30.12,6.0,WSW,3.5,-,N/A,,Clear,240,2013-07-05 09:54:00
6:54 AM,73.0,70.0,90,30.12,7.0,SW,8.1,-,N/A,,Clear,230,2013-07-05 10:54:00
7:54 AM,75.9,70.0,82,30.11,9.0,WSW,8.1,-,N/A,,Clear,240,2013-07-05 11:54:00
8:54 AM,79.0,71.1,77,30.12,10.0,SW,5.8,-,N/A,,Clear,230,2013-07-05 12:54:00
9:54 AM,81.0,70.0,69,30.10,10.0,Variable,4.6,-,N/A,,Clear,0,2013-07-05 13:54:00
10:54 AM,82.0,69.1,65,30.10,10.0,WNW,5.8,-,N/A,,Mostly Cloudy,290,2013-07-05 14:54:00
11:54 AM,84.0,70.0,63,30.09,10.0,WSW,8.1,-,N/A,,Partly Cloudy,250,2013-07-05 15:54:00
12:54 PM,84.9,69.1,59,30.08,10.0,WSW,6.9,-,N/A,,Partly Cloudy,240,2013-07-05 16:54:00
1:54 PM,86.0,69.1,57,30.06,10.0,Variable,4.6,-,N/A,,Partly Cloudy,0,2013-07-05 17:54:00
2:54 PM,86.0,68.0,55,30.05,10.0,SW,8.1,-,N/A,,Mostly Cloudy,230,2013-07-05 18:54:00
3:54 PM,87.1,70.0,57,30.03,10.0,SSW,9.2,-,N/A,,Partly Cloudy,210,2013-07-05 19:54:00
4:54 PM,84.9,70.0,61,30.03,10.0,SW,8.1,-,N/A,,Scattered Clouds,230,2013-07-05 20:54:00
5:54 PM,84.9,70.0,61,30.01,10.0,SSW,11.5,18.4,N/A,,Partly Cloudy,210,2013-07-05 21:54:00
6:54 PM,84.0,69.1,61,30.00,10.0,SSW,9.2,-,N/A,,Clear,210,2013-07-05 22:54:00
7:54 PM,82.0,69.1,65,30.01,10.0,SSW,10.4,16.1,N/A,,Clear,210,2013-07-05 23:54:00
8:54 PM,80.1,68.0,67,30.01,10.0,SW,6.9,-,N/A,,Clear,220,2013-07-06 00:54:00
9:54 PM,79.0,69.1,72,30.03,10.0,SW,6.9,-,N/A,,Clear,220,2013-07-06 01:54:00
10:54 PM,78.1,69.1,74,30.03,10.0,SW,9.2,-,N/A,,Clear,230,2013-07-06 02:54:00
11:54 PM,78.1,69.1,74,30.03,10.0,SW,8.1,-,N/A,,Clear,230,2013-07-06 03:54:00